This is the latest recevied weather packets stored in our database for station/object N3WXO-1. If no packets are shown the sender has not sent any weather packets the latest 10 day(s).
| Time | Temp. | Humidity | Pressure | Rain* | Wind** | Luminosity | Snow |
|---|---|---|---|---|---|---|---|
| 1777912525 | 20° C | 41% | 1011.6 hPa | 0 mm | - | 847 W/m² | - |
| 1777912220 | 20° C | 41% | 1011.8 hPa | 0 mm | - | 846 W/m² | - |
| 1777911937 | 20° C | 43% | 1011.8 hPa | 0 mm | - | 846 W/m² | - |
| 1777911634 | 20° C | 42% | 1011.7 hPa | 0 mm | - | 838 W/m² | - |
| 1777911322 | 20° C | 40% | 1011.8 hPa | 0 mm | - | 835 W/m² | - |
| 1777911035 | 20° C | 40% | 1011.9 hPa | 0 mm | - | 837 W/m² | - |
| 1777910720 | 19.44° C | 41% | 1011.8 hPa | 0 mm | - | 830 W/m² | - |
| 1777910427 | 19.44° C | 41% | 1011.9 hPa | 0 mm | - | 826 W/m² | - |
| 1777910124 | 19.44° C | 40% | 1012.1 hPa | 0 mm | - | 791 W/m² | - |
| 1777909819 | 19.44° C | 45% | 1012.2 hPa | 0 mm | - | 816 W/m² | - |
| 1777909535 | 18.89° C | 43% | 1012.3 hPa | 0 mm | - | 810 W/m² | - |
| 1777909231 | 18.89° C | 43% | 1012.5 hPa | 0 mm | - | 812 W/m² | - |
| 1777908926 | 18.89° C | 43% | 1012.5 hPa | 0 mm | - | 795 W/m² | - |
| 1777908622 | 18.33° C | 43% | 1012.5 hPa | 0 mm | - | 788 W/m² | - |
| 1777908319 | 18.33° C | 41% | 1012.6 hPa | 0 mm | - | 784 W/m² | - |
| 1777908036 | 18.33° C | 42% | 1012.6 hPa | 0 mm | - | 770 W/m² | - |
| 1777907732 | 17.78° C | 42% | 1012.6 hPa | 0 mm | - | 770 W/m² | - |
| 1777907421 | 17.78° C | 40% | 1012.9 hPa | 0 mm | - | 763 W/m² | - |
| 1777907134 | 17.78° C | 42% | 1012.8 hPa | 0 mm | - | 756 W/m² | - |
| 1777906827 | 17.78° C | 42% | 1012.8 hPa | 0 mm | - | 742 W/m² | - |
| 1777906519 | 17.22° C | 41% | 1012.8 hPa | 0 mm | - | 742 W/m² | - |
| 1777906234 | 17.22° C | 45% | 1012.9 hPa | 0 mm | - | 728 W/m² | - |
| 1777905925 | 17.22° C | 42% | 1012.9 hPa | 0 mm | - | 726 W/m² | - |
| 1777905646 | 17.22° C | 42% | 1013 hPa | 0 mm | - | 710 W/m² | - |
| 1777905330 | 16.67° C | 43% | 1013 hPa | 0 mm | - | 701 W/m² | - |
* Rain latest hour (hover to see other rain measurements)
** Current wind speed in m/s (hover to see current wind gust speed)